Showing default

TIANQI 23, 57794

Orbit data source: Space-Track

TIANQI 23, 57794 is a payload satellite owned by Guodian Gaokeji (CN) in LEO that was launched on Tue, 05 Sep 2023 UTC via a GUSHENXING 1 launch vehicle from the Yellow Sea Launch Area, China (YSLA). Payload-class satellites include a variety of spacecraft equipped with specific instruments for various scientific and technological missions. These include communications satellites like Starlink; space stations such as the ISS; scientific satellites like the Hubble; Earth observation satellites from companies like Planet Labs, Umbra, and HawkEye 360; GPS; miniature CubeSats for education and research; and military/defense satellites.

Loading next visibility...
Identifier
57794, 2023-135C
Orbit
LEO
Country
Flag of CNCN / PRC
Related business
Manufacturer
Shanghai ASES
Mission
Operational Commercial Communications
Bus & Motor
STARLIGHTB, Unknown motor
Mass
40 kg wet, ~40 kg dry
Launch date (UTC)
2023-09-05 (3 years ago)
Launch vehicle
GUSHENXING 1
Launch site
Yellow Sea Launch Area, China (YSLA)
Object type
Payload
Rocket body
Debris
Shape & HBR
Box, 0.3 m
Radar Cross Section
0.195 m², Medium (>0.1 m² and < 1m²)

Expand to show TLE details & history
Last TLE update: 2 days ago

TLE from 2 days ago
0 TIANQI 23
1 57794U 23135C   26171.37689007  .00000264  00000-0  18615-3 0  9999
2 57794  49.9712 139.1164 0013933 273.1976  86.7342 14.23040413145085
Epoch: 2026-06-20T09:02Z
TLE epoch observation values (Epoch: 2026-06-20T09:02:43.302Z)
Latitude
-0°
Longitude
94.84358°
Altitude
815.058 km
Speed
7.447 km/s
True Right ascension
09h 16m 27s
True Declination
0° 00' 00"
Sunlit
Object was in daylight at epoch
Visualization orbit readout
Latitude
Unknown
Longitude
Unknown
Altitude
Unknown
Speed
Unknown
Apparent Right ascension
Unknown
Apparent Declination
Unknown
Sunlit
N/A
Visualization observer readout
Local Sidereal Time
21:23:57
Azimuth
Unknown
Elevation
Unknown
Doppler factor
Unknown
Orbital elements
Apogee altitude
825.854 km
Perigee altitude
805.808 km
Semi-major axis
7,193.968 km
Eccentricity
0.00139
Inclination
49.9712°
RAAN
139.1164°
Arg. of periapsis
273.1976°
True anomaly
86.89362°
Mean anomaly
86.7342°
Eccentric anomaly
86.81391°
Mean motion
3.55705 °/min
Orbital period
101.21 mins
BSTAR
0.00018615
Loading maneuver chart data...
Computing Atmospheric mass density...
Loading historical data...
Loading historical data...
Loading historical data...
Loading historical data...
Loading historical data...
Loading historical data...
Loading historical data...
Other satellites on launch #135 in the year 2023 (2023-09-05 UTC)

Documentation

Showing up to 5 results
|